When you browse on this site, cookies collect data to enhance your experience and personalize the content and advertising you see.
Visit our Privacy Policy to learn more. By continuing to use the site, you agree to this use of cookies and data.
  • In Portugal
  • List of Countries
  • For 7 days
  • Water Temperature
  • Weather Map
  • Weather Widgets
  • user-avatar
    Login

    Hourly Weather Iraklion

    Today, 7 December, Saturday

    Time Temperature Precipitation Wind Pressure Humidity
    00:00 +12°C° 0 mm 2 mps 760 mmHg 85%
    01:00 +12°C° 0 mm 2 mps 760 mmHg 85%
    02:00 +12°C° 0 mm 2 mps 759 mmHg 85%
    03:00 +12°C° 0 mm 1 mps 759 mmHg 86%
    04:00 +12°C° 0 mm 1 mps 759 mmHg 86%
    05:00 +12°C° 0 mm 1 mps 759 mmHg 86%
    06:00 +12°C° 0 mm 1 mps 759 mmHg 86%
    07:00 +12°C° 0 mm 1 mps 759 mmHg 85%
    08:00 +13°C° 0 mm 1 mps 759 mmHg 84%
    09:00 +14°C° 0 mm 1 mps 759 mmHg 77%
    10:00 +16°C° 0 mm 1 mps 759 mmHg 70%
    11:00 +19°C° 0 mm 1 mps 759 mmHg 63%
    12:00 +18°C° 0 mm 2 mps 758 mmHg 62%
    13:00 +19°C° 0 mm 2 mps 758 mmHg 61%
    14:00 +19°C° 0 mm 2 mps 757 mmHg 60%
    15:00 +18°C° 0 mm 2 mps 757 mmHg 66%
    16:00 +17°C° 0 mm 2 mps 757 mmHg 73%
    17:00 +16°C° 0 mm 2 mps 757 mmHg 80%
    18:00 +16°C° 0 mm 2 mps 757 mmHg 81%
    19:00 +15°C° 0 mm 2 mps 756 mmHg 82%
    20:00 +14°C° 0 mm 3 mps 756 mmHg 82%
    21:00 +14°C° 0 mm 3 mps 756 mmHg 82%
    22:00 +14°C° 0 mm 3 mps 756 mmHg 81%
    23:00 +14°C° 0 mm 3 mps 756 mmHg 80%

    Tomorrow, 8 December, Sunday

    Time Temperature Precipitation Wind Pressure Humidity
    00:00 +14°C° 0.1 mm 4 mps 756 mmHg 82%
    01:00 +14°C° 0.1 mm 4 mps 756 mmHg 83%
    02:00 +14°C° 0.1 mm 5 mps 755 mmHg 85%
    03:00 +14°C° 0.1 mm 4 mps 755 mmHg 87%
    04:00 +14°C° 0.1 mm 4 mps 755 mmHg 89%
    05:00 +14°C° 0.1 mm 4 mps 755 mmHg 91%
    06:00 +14°C° 0.1 mm 4 mps 755 mmHg 91%
    07:00 +14°C° 0.1 mm 3 mps 755 mmHg 91%
    08:00 +14°C° 0.1 mm 3 mps 756 mmHg 91%
    09:00 +17°C° 0.1 mm 3 mps 756 mmHg 85%
    10:00 +18°C° 0.1 mm 4 mps 756 mmHg 79%
    11:00 +19°C° 0.1 mm 4 mps 756 mmHg 73%
    12:00 +19°C° 0.2 mm 4 mps 756 mmHg 72%
    13:00 +19°C° 0.2 mm 4 mps 756 mmHg 71%
    14:00 +19°C° 0.2 mm 5 mps 755 mmHg 70%
    15:00 +18°C° 0.3 mm 4 mps 755 mmHg 76%
    16:00 +17°C° 0.3 mm 4 mps 755 mmHg 81%
    17:00 +15°C° 0.3 mm 4 mps 755 mmHg 86%
    18:00 +14°C° 0.3 mm 3 mps 756 mmHg 88%
    19:00 +14°C° 0.3 mm 3 mps 756 mmHg 89%
    20:00 +14°C° 0.3 mm 3 mps 756 mmHg 91%
    21:00 +14°C° 0.1 mm 3 mps 756 mmHg 90%
    22:00 +14°C° 0.1 mm 3 mps 756 mmHg 89%
    23:00 +14°C° 0.1 mm 3 mps 756 mmHg 88%

    Day after tomorrow, 9 December, Monday

    Time Temperature Precipitation Wind Pressure Humidity
    00:00 +13°C° 0 mm 3 mps 756 mmHg 88%
    01:00 +13°C° 0 mm 3 mps 756 mmHg 88%
    02:00 +13°C° 0 mm 3 mps 756 mmHg 88%
    03:00 +13°C° 0 mm 3 mps 755 mmHg 88%
    04:00 +13°C° 0 mm 3 mps 755 mmHg 87%
    05:00 +13°C° 0 mm 3 mps 755 mmHg 87%
    06:00 +13°C° 0 mm 3 mps 755 mmHg 86%
    07:00 +14°C° 0 mm 2 mps 755 mmHg 86%
    08:00 +14°C° 0 mm 2 mps 755 mmHg 85%
    09:00 +15°C° 0 mm 2 mps 755 mmHg 78%
    10:00 +16°C° 0 mm 2 mps 755 mmHg 70%
    11:00 +18°C° 0 mm 2 mps 755 mmHg 63%
    12:00 +18°C° 0 mm 2 mps 755 mmHg 61%
    13:00 +18°C° 0 mm 2 mps 754 mmHg 60%
    14:00 +18°C° 0 mm 2 mps 754 mmHg 59%
    15:00 +18°C° 0 mm 1 mps 754 mmHg 64%
    16:00 +16°C° 0 mm 1 mps 753 mmHg 70%
    17:00 +15°C° 0 mm 1 mps 753 mmHg 75%
    18:00 +15°C° 0 mm 1 mps 753 mmHg 77%
    19:00 +14°C° 0 mm 1 mps 753 mmHg 78%
    20:00 +14°C° 0 mm 1 mps 754 mmHg 80%
    21:00 +14°C° 0 mm 1 mps 754 mmHg 80%
    22:00 +14°C° 0 mm 1 mps 753 mmHg 80%
    23:00 +14°C° 0 mm 1 mps 753 mmHg 80%

    10 December, Tuesday

    Time Temperature Precipitation Wind Pressure Humidity
    00:00 +14°C° 0 mm 1 mps 753 mmHg 80%
    01:00 +14°C° 0 mm 2 mps 752 mmHg 81%
    02:00 +13°C° 0 mm 2 mps 752 mmHg 82%
    03:00 +14°C° 0 mm 2 mps 752 mmHg 82%
    04:00 +14°C° 0 mm 2 mps 752 mmHg 82%
    05:00 +14°C° 0 mm 2 mps 751 mmHg 83%
    06:00 +14°C° 0 mm 2 mps 751 mmHg 83%
    07:00 +14°C° 0 mm 3 mps 751 mmHg 83%
    08:00 +14°C° 0 mm 3 mps 751 mmHg 84%
    09:00 +16°C° 0 mm 3 mps 751 mmHg 78%
    10:00 +18°C° 0 mm 4 mps 751 mmHg 73%
    11:00 +19°C° 0 mm 4 mps 751 mmHg 67%
    12:00 +19°C° 0.1 mm 4 mps 750 mmHg 66%
    13:00 +19°C° 0.1 mm 5 mps 750 mmHg 65%
    14:00 +20°C° 0.1 mm 5 mps 749 mmHg 63%
    15:00 +19°C° 0.1 mm 5 mps 749 mmHg 68%
    16:00 +17°C° 0.1 mm 5 mps 749 mmHg 72%
    17:00 +16°C° 0.1 mm 5 mps 748 mmHg 76%
    18:00 +16°C° 0.2 mm 5 mps 748 mmHg 78%
    19:00 +15°C° 0.2 mm 5 mps 748 mmHg 80%
    20:00 +15°C° 0.2 mm 5 mps 748 mmHg 81%
    21:00 +15°C° 0.2 mm 5 mps 749 mmHg 82%
    22:00 +15°C° 0.2 mm 5 mps 749 mmHg 83%
    23:00 +15°C° 0.2 mm 5 mps 749 mmHg 83%

    11 December, Wednesday

    Time Temperature Precipitation Wind Pressure Humidity
    00:00 +14°C° 0.2 mm 4 mps 749 mmHg 84%
    01:00 +14°C° 0.2 mm 4 mps 748 mmHg 85%
    02:00 +14°C° 0.2 mm 3 mps 748 mmHg 85%
    03:00 +13°C° 0 mm 3 mps 748 mmHg 82%
    04:00 +13°C° 0 mm 3 mps 748 mmHg 79%
    05:00 +13°C° 0 mm 3 mps 748 mmHg 76%
    06:00 +13°C° 0 mm 3 mps 748 mmHg 78%
    07:00 +13°C° 0 mm 3 mps 748 mmHg 79%
    08:00 +13°C° 0 mm 3 mps 748 mmHg 80%
    09:00 +14°C° 0.1 mm 3 mps 748 mmHg 74%
    10:00 +17°C° 0.1 mm 4 mps 748 mmHg 69%
    11:00 +18°C° 0.1 mm 4 mps 748 mmHg 63%
    12:00 +18°C° 0.3 mm 4 mps 748 mmHg 64%
    13:00 +18°C° 0.3 mm 4 mps 747 mmHg 66%
    14:00 +18°C° 0.3 mm 4 mps 747 mmHg 67%
    15:00 +17°C° 0.1 mm 3 mps 747 mmHg 71%
    16:00 +16°C° 0.1 mm 3 mps 747 mmHg 76%
    17:00 +15°C° 0.1 mm 2 mps 747 mmHg 80%
    18:00 +14°C° 0.2 mm 2 mps 747 mmHg 82%
    19:00 +14°C° 0.2 mm 2 mps 747 mmHg 85%
    20:00 +13°C° 0.2 mm 2 mps 747 mmHg 87%
    21:00 +13°C° 0 mm 2 mps 747 mmHg 85%
    22:00 +13°C° 0 mm 2 mps 747 mmHg 84%
    23:00 +13°C° 0 mm 2 mps 747 mmHg 82%

    12 December, Thursday

    Time Temperature Precipitation Wind Pressure Humidity
    00:00 +13°C° 0 mm 2 mps 747 mmHg 80%
    01:00 +13°C° 0 mm 2 mps 747 mmHg 77%
    02:00 +12°C° 0 mm 2 mps 747 mmHg 75%
    03:00 +12°C° 0 mm 1 mps 747 mmHg 75%
    04:00 +12°C° 0 mm 1 mps 747 mmHg 75%
    05:00 +12°C° 0 mm 1 mps 747 mmHg 75%
    06:00 +12°C° 0 mm 2 mps 747 mmHg 77%
    07:00 +12°C° 0 mm 2 mps 748 mmHg 79%
    08:00 +12°C° 0 mm 2 mps 748 mmHg 81%
    09:00 +14°C° 0 mm 2 mps 749 mmHg 77%
    10:00 +16°C° 0 mm 3 mps 749 mmHg 72%
    11:00 +18°C° 0 mm 3 mps 750 mmHg 67%
    12:00 +18°C° 0.1 mm 3 mps 750 mmHg 67%
    13:00 +18°C° 0.1 mm 3 mps 750 mmHg 67%
    14:00 +18°C° 0.1 mm 3 mps 750 mmHg 66%
    15:00 +17°C° 0.1 mm 3 mps 750 mmHg 73%
    16:00 +16°C° 0.1 mm 3 mps 750 mmHg 79%
    17:00 +14°C° 0.1 mm 3 mps 750 mmHg 85%
    18:00 +14°C° 0.1 mm 3 mps 751 mmHg 86%
    19:00 +14°C° 0.1 mm 3 mps 751 mmHg 87%
    20:00 +15°C° 0.1 mm 2 mps 751 mmHg 88%
    21:00 +15°C° 0.1 mm 2 mps 752 mmHg 89%
    22:00 +14°C° 0.1 mm 2 mps 752 mmHg 89%
    23:00 +14°C° 0.1 mm 2 mps 752 mmHg 89%
    Show more